Date,TemperatureHighF,TemperatureAvgF,TemperatureLowF,DewpointHighF,DewpointAvgF,DewpointLowF,HumidityHigh,HumidityAvg,HumidityLow,PressureMaxIn,PressureMinIn,WindSpeedMaxMPH,WindSpeedAvgMPH,GustSpeedMaxMPH,PrecipitationSumIn
2013-1-1,46,24,8,22,15,5,91,68,33,30.16,29.96,10,2,10,0.00
2013-1-2,44,18,4,22,8,2,92,70,24,30.22,30.11,8,2,8,0.00
2013-1-3,46,24,12,14,10,6,82,59,23,30.11,29.97,8,2,8,0.00
2013-1-4,46,35,12,26,18,7,82,52,29,30.02,29.95,19,6,19,0.00
2013-1-5,48,31,22,25,20,17,91,68,33,30.08,29.89,17,3,17,0.00
2013-1-6,53,36,24,26,20,16,80,54,33,29.89,29.75,17,5,17,0.00
2013-1-7,43,38,30,29,24,20,70,57,47,29.81,29.52,23,6,23,0.00
2013-1-8,47,40,33,29,24,17,69,54,30,29.84,29.55,24,6,24,0.00
2013-1-9,53,48,37,30,27,23,61,44,31,29.75,29.48,34,9,34,0.00
2013-1-10,38,22,9,31,18,6,95,85,62,29.75,29.45,14,2,14,0.00
2013-1-11,14,7,-4,6,2,-6,87,80,67,29.99,29.75,9,2,9,0.00
2013-1-12,18,3,-6,9,-1,-9,91,83,65,30.00,29.87,8,1,8,0.00
2013-1-13,39,9,-7,15,3,-10,89,77,34,30.05,29.97,6,1,6,0.00
2013-1-14,24,16,3,15,7,-1,89,69,48,30.01,29.86,20,5,20,0.00
2013-1-15,47,32,24,24,20,15,71,62,39,30.07,29.94,19,6,19,0.01
2013-1-16,65,38,27,27,21,15,83,55,15,30.16,30.02,12,3,12,0.00
2013-1-17,55,42,28,24,19,15,78,43,22,30.17,29.94,20,5,20,0.00
2013-1-18,50,44,30,21,16,11,66,33,21,29.97,29.81,23,6,23,0.00
2013-1-19,47,37,26,28,21,13,75,55,26,30.07,29.94,11,2,11,0.00
2013-1-20,35,22,12,21,16,10,92,79,53,30.27,30.06,18,3,18,0.00
2013-1-21,60,34,13,26,14,3,95,56,11,30.06,29.87,14,3,14,0.00
2013-1-22,54,40,25,21,10,-3,64,34,11,29.96,29.87,15,3,15,0.00
2013-1-23,48,33,23,31,22,17,79,66,42,29.93,29.70,23,1,23,0.00
2013-1-24,54,45,36,33,24,18,66,45,25,29.94,29.71,17,5,17,0.00
2013-1-25,53,45,40,33,29,25,71,53,43,29.93,29.73,21,6,21,0.00
2013-1-26,63,43,29,36,32,26,99,71,27,29.74,29.55,18,3,18,0.09
2013-1-27,46,31,19,32,22,15,99,74,30,29.70,29.63,15,2,15,0.01
2013-1-28,43,29,16,20,17,14,92,63,32,29.70,29.57,14,3,14,0.00
2013-1-29,30,19,7,22,10,-4,90,68,36,30.04,29.58,14,4,14,0.00
2013-1-30,44,27,17,28,22,14,90,80,53,29.93,29.73,14,4,16,0.00
2013-1-31,55,32,16,31,23,13,89,71,36,29.97,29.86,8,2,15,0.00
2013-2-1,53,39,25,36,26,21,92,63,30,30.08,29.85,14,4,19,0.00
2013-2-2,56,35,25,30,24,21,89,67,28,30.16,30.01,10,3,13,0.00
2013-2-3,48,42,36,25,22,19,61,46,37,30.01,29.79,12,5,19,0.00
2013-2-4,45,42,41,28,26,24,57,53,50,29.80,29.74,14,6,18,0.00
2013-2-5,53,41,32,32,28,25,81,59,43,29.81,29.61,15,4,15,0.00
2013-2-6,50,38,29,27,22,19,72,55,31,29.89,29.63,18,4,18,0.00
2013-2-7,51,36,24,24,19,16,80,54,27,29.88,29.73,12,3,14,0.00
2013-2-8,54,30,16,29,19,14,94,69,27,29.82,29.73,8,2,8,0.00
2013-2-9,44,27,11,29,20,10,96,78,34,29.88,29.66,11,2,11,0.00
2013-2-10,44,25,5,26,18,3,94,75,34,30.01,29.88,12,2,12,0.08
2013-2-11,46,26,4,22,16,2,94,68,37,29.93,29.81,15,3,18,0.01
2013-2-12,50,37,26,28,24,19,82,61,38,29.90,29.78,16,4,21,0.00
2013-2-13,55,40,26,30,26,21,91,58,29,30.07,29.75,27,6,27,0.00
2013-2-14,48,30,19,27,23,18,95,76,39,30.17,30.06,8,1,8,0.04
2013-2-15,54,36,22,29,24,18,86,66,34,30.19,30.01,14,4,16,0.00
2013-2-16,61,44,32,35,28,25,88,55,28,30.01,29.58,18,5,20,0.00
2013-2-17,42,32,26,34,28,23,97,85,56,29.90,29.60,10,2,10,0.00
2013-2-18,58,29,11,33,22,10,97,79,30,29.92,29.70,4,1,8,0.15
2013-2-19,51,30,16,31,21,14,97,75,30,29.70,29.54,6,2,6,0.01
2013-2-20,41,24,14,27,20,12,94,83,57,29.75,29.65,4,1,7,0.00
2013-2-21,45,27,8,28,15,6,95,65,26,29.79,29.71,11,3,14,0.00
2013-2-22,47,36,19,25,20,14,85,55,33,29.75,29.45,17,5,21,0.00
2013-2-23,43,35,27,27,21,14,93,60,31,29.91,29.44,10,4,19,0.00
2013-2-24,47,32,17,25,19,14,95,62,31,29.96,29.83,14,4,17,0.00
2013-2-25,44,36,32,25,19,16,58,49,35,29.85,29.67,13,6,18,0.00
2013-2-26,46,33,22,30,18,16,84,58,33,30.03,29.76,13,3,14,0.00
2013-2-27,50,32,18,19,16,13,84,56,26,30.04,29.98,12,4,19,0.00
2013-2-28,55,39,24,32,24,18,82,58,26,30.09,30.00,15,4,15,0.00
2013-3-1,59,49,39,36,34,30,71,56,37,30.08,30.03,17,7,21,0.00
2013-3-2,66,49,33,33,30,25,82,51,24,30.09,29.72,14,4,19,0.00
2013-3-3,46,38,23,34,23,9,87,57,23,29.95,29.57,20,6,26,0.00
2013-3-4,38,22,4,23,16,2,92,79,42,30.13,29.95,8,2,9,0.06
2013-3-5,48,20,1,24,9,-2,93,70,26,30.05,29.86,12,2,12,0.05
2013-3-6,49,28,19,34,24,18,99,86,44,29.84,29.54,11,2,11,0.02
2013-3-7,54,36,23,31,23,16,98,64,23,29.88,29.67,11,3,14,0.01
2013-3-8,59,34,15,28,19,2,95,64,10,29.87,29.70,10,2,12,0.00
2013-3-9,59,34,14,27,19,13,94,62,17,30.05,29.83,13,2,13,0.00
2013-3-10,53,41,28,27,22,13,78,50,21,30.06,29.91,17,4,17,0.00
2013-3-11,40,31,22,29,24,20,92,74,55,30.11,29.88,14,4,15,0.00
2013-3-12,58,35,17,34,24,15,95,69,34,30.11,29.85,16,3,16,0.00
2013-3-13,66,57,49,33,31,26,52,37,24,29.99,29.89,19,7,21,0.00
2013-3-14,70,49,33,33,30,27,85,52,21,29.99,29.78,11,3,14,0.00
2013-3-15,65,51,34,31,29,24,74,44,23,29.91,29.77,17,6,19,0.00
2013-3-16,58,38,26,35,26,22,86,66,31,29.91,29.51,14,3,23,0.00
2013-3-17,43,31,13,30,18,10,89,59,31,29.84,29.40,18,5,33,0.00
2013-3-18,46,27,7,23,15,5,93,66,30,29.83,29.71,18,4,23,0.02
2013-3-19,54,32,12,25,14,2,94,56,13,30.04,29.83,11,2,11,0.01
2013-3-20,65,47,27,37,22,7,72,39,22,29.86,29.36,21,6,29,0.01
2013-3-21,47,38,25,23,14,5,65,40,18,29.76,29.49,19,6,22,0.00
2013-3-22,36,24,13,22,17,9,91,75,47,30.04,29.76,14,3,14,0.06
2013-3-23,43,20,-1,17,6,-4,92,62,19,30.09,30.01,9,2,15,0.00
2013-3-24,49,25,5,18,7,-7,90,55,10,30.11,29.99,10,2,11,0.00
2013-3-25,58,32,11,20,10,-1,86,49,10,30.00,29.83,17,3,17,0.00
2013-3-26,63,40,21,25,19,12,81,48,14,29.84,29.75,9,2,9,0.00
2013-3-27,68,45,21,32,23,17,87,50,16,29.88,29.77,10,2,16,0.00
2013-3-28,68,48,26,39,32,24,95,60,23,29.91,29.83,12,2,13,0.00
2013-3-29,66,48,34,40,31,23,90,58,22,30.00,29.91,15,4,16,0.00
2013-3-30,68,46,26,39,26,18,95,55,15,30.06,29.91,11,3,12,0.00
2013-3-31,62,44,26,36,26,22,91,56,24,30.00,29.88,14,4,18,0.00
2013-4-1,68,43,21,31,25,19,92,55,19,29.96,29.85,14,3,15,0.00
2013-4-2,77,49,24,35,26,18,91,51,11,29.90,29.76,14,3,15,0.00
2013-4-3,66,50,34,40,34,30,85,57,30,29.98,29.81,17,3,20,0.00
2013-4-4,67,46,30,43,33,28,93,66,31,29.95,29.62,10,2,18,0.00
2013-4-5,67,54,44,41,34,27,80,51,23,29.74,29.60,17,6,21,0.00
2013-4-6,60,50,41,41,32,26,73,52,32,29.74,29.64,23,4,23,0.00
2013-4-7,52,40,27,42,31,26,98,73,46,29.76,29.48,17,3,17,0.14
2013-4-8,32,24,19,26,16,13,97,74,52,30.14,29.77,0,0,0,0.00
2013-4-9,46,29,12,29,20,11,94,72,41,30.20,30.02,10,2,11,0.14
2013-4-10,62,42,20,41,30,19,96,66,38,30.04,29.62,14,4,19,0.00
2013-4-11,60,44,30,40,29,23,93,61,27,29.86,29.66,16,4,17,0.00
2013-4-12,59,41,29,33,28,19,94,65,22,29.93,29.48,11,3,14,0.05
2013-4-13,56,44,26,36,21,8,84,45,18,29.58,29.33,23,6,23,0.01
2013-4-14,41,30,23,27,22,18,95,75,46,29.85,29.58,14,3,14,0.11
2013-4-15,36,26,18,26,21,17,95,82,59,30.01,29.83,14,3,16,0.01
2013-4-16,36,26,20,26,22,19,94,83,58,30.14,29.99,11,3,18,0.02
2013-4-17,47,30,15,30,20,14,96,70,28,30.15,30.05,11,2,13,0.13
2013-4-18,56,36,15,27,21,13,94,60,29,30.05,29.95,13,3,13,0.00
2013-4-19,55,43,30,36,31,25,89,64,46,29.95,29.68,17,4,21,0.00
2013-4-20,63,47,32,38,33,25,94,63,29,29.93,29.72,17,5,20,0.00
2013-4-21,34,28,23,31,24,21,96,86,68,30.13,29.93,21,3,22,0.11
2013-4-22,48,30,19,24,19,2,95,67,17,30.25,30.12,11,3,11,0.12
2013-4-23,56,35,15,29,21,13,94,63,23,30.14,29.97,16,3,16,0.00
2013-4-24,65,46,26,33,25,18,94,52,18,30.09,29.78,15,4,16,0.00
2013-4-25,72,55,41,34,24,14,65,34,11,29.88,29.69,20,4,20,0.00
2013-4-26,78,56,30,38,30,23,91,44,15,29.96,29.88,17,4,17,0.00
2013-4-27,76,61,45,36,28,14,64,32,10,29.95,29.76,29,7,29,0.02
2013-4-28,67,57,49,37,31,22,58,39,19,29.86,29.67,23,7,23,0.00
2013-4-29,61,50,36,38,28,11,68,43,18,29.69,29.44,32,8,32,0.00
2013-4-30,43,33,23,33,24,20,93,73,50,30.10,29.69,19,3,19,0.04
2013-5-1,57,37,16,28,18,11,94,54,16,30.36,30.10,17,3,17,0.00
2013-5-2,72,47,21,28,18,6,86,41,10,30.37,30.07,17,4,17,0.00
2013-5-3,54,45,36,46,37,23,99,75,47,30.12,30.05,12,2,12,0.41
2013-5-4,64,48,36,46,41,36,99,79,41,34.00,30.06,17,3,17,0.04
2013-5-5,73,51,29,44,38,29,99,66,28,30.07,29.85,14,4,18,0.00
2013-5-6,84,57,31,46,36,25,99,57,12,29.90,29.71,11,3,11,0.00
2013-5-7,78,57,34,48,38,33,97,54,23,29.95,29.74,20,5,20,0.00
2013-5-8,82,58,34,44,38,32,95,54,18,30.03,29.88,15,3,15,0.00
2013-5-9,82,60,39,48,42,30,95,56,15,30.02,29.92,17,3,17,0.00
2013-5-10,73,55,37,41,35,28,99,53,20,30.26,29.98,19,5,20,0.00
2013-5-11,90,62,34,46,36,24,91,47,10,30.19,29.91,14,3,19,0.00
2013-5-12,94,70,44,55,41,31,90,44,13,29.96,29.78,15,4,15,0.00
2013-5-13,91,71,53,54,45,32,75,44,13,29.87,29.55,24,4,24,0.00
2013-5-14,76,61,50,34,25,9,53,29,10,29.88,29.79,24,7,24,0.00
2013-5-15,78,58,35,36,28,12,74,37,10,29.91,29.75,11,3,11,0.00
2013-5-16,73,57,40,45,39,34,86,53,29,29.78,29.70,13,3,13,0.00
2013-5-17,61,51,36,52,44,34,98,79,53,29.82,29.75,10,2,10,0.20
2013-5-18,70,54,48,53,49,46,99,83,42,29.88,29.78,14,2,14,0.04
2013-5-19,60,52,47,53,48,46,99,90,71,30.04,29.87,8,1,8,0.31
2013-5-20,68,53,45,54,50,43,99,89,53,30.07,29.59,12,1,12,0.12
2013-5-21,79,59,35,53,39,24,99,57,15,29.85,29.47,22,5,22,0.01
2013-5-22,66,57,46,51,44,34,96,63,39,29.74,29.65,21,4,21,0.26
2013-5-23,60,48,42,47,44,41,99,87,57,29.83,29.70,13,2,13,0.58
2013-5-24,71,53,41,44,39,28,99,65,22,29.85,29.73,21,5,21,0.04
2013-5-25,76,55,35,44,38,33,94,58,24,29.86,29.76,16,3,16,0.00
2013-5-26,72,53,33,52,42,33,99,72,33,29.88,29.74,14,3,14,0.34
2013-5-27,73,52,40,53,46,39,99,84,39,29.79,29.66,10,2,10,0.05
2013-5-28,68,52,41,53,48,41,99,87,49,29.67,29.62,9,2,9,0.27
2013-5-29,70,56,47,53,48,44,99,76,47,29.67,29.55,16,3,16,0.00
2013-5-30,60,53,47,50,46,39,97,78,48,29.85,29.63,9,2,11,0.06
2013-5-31,59,50,43,48,45,39,97,85,60,30.14,29.85,14,2,14,0.11
2013-6-1,76,56,32,51,41,32,99,65,26,30.14,29.88,11,2,11,0.01
2013-6-2,67,53,43,54,48,41,99,83,44,29.88,29.72,8,2,10,0.30
2013-6-3,55,47,43,51,45,42,99,93,79,30.03,29.75,14,2,14,0.70
2013-6-4,66,49,36,49,41,35,99,76,38,30.11,30.03,10,3,10,0.04
2013-6-5,86,59,32,50,41,32,99,60,20,30.06,29.82,9,3,9,0.00
2013-6-6,87,64,41,56,49,40,99,63,29,30.00,29.82,13,4,13,0.00
2013-6-7,86,67,46,59,49,42,99,59,24,29.83,29.64,17,4,18,0.00
2013-6-8,86,67,49,55,44,29,99,52,14,29.85,29.75,14,4,14,0.01
2013-6-9,89,67,42,52,36,14,94,45,10,29.83,29.64,19,4,19,0.00
2013-6-10,82,63,36,51,40,30,95,50,18,29.81,29.64,19,5,19,0.00
2013-6-11,72,59,48,53,48,44,96,69,47,29.93,29.70,12,3,13,0.00
2013-6-12,79,60,41,62,53,41,99,81,46,29.93,29.75,12,3,12,0.30
2013-6-13,65,55,48,56,52,46,99,92,68,29.90,29.76,7,2,7,1.06
2013-6-14,69,55,39,54,40,33,99,64,32,29.95,29.85,14,4,20,0.00
2013-6-15,86,63,42,43,35,17,85,44,10,29.96,29.82,16,4,16,0.00
2013-6-16,79,60,38,53,46,36,98,64,34,30.01,29.92,18,4,18,0.00
2013-6-17,91,66,42,62,51,42,99,64,19,30.00,29.77,18,3,18,0.00
2013-6-18,90,75,58,63,57,48,87,55,36,29.82,29.60,11,4,11,0.00
2013-6-19,81,58,48,64,54,45,99,87,51,29.72,29.52,12,2,12,0.94
2013-6-20,75,56,45,49,44,40,90,64,33,29.92,29.63,18,5,22,0.06
2013-6-21,80,59,38,52,42,34,98,61,23,29.92,29.86,11,3,11,0.00
2013-6-22,77,56,43,54,47,42,99,74,35,29.92,29.81,14,2,14,0.02
2013-6-23,84,63,40,54,45,36,99,59,19,29.85,29.63,13,3,13,0.00
2013-6-24,86,65,49,57,52,45,91,64,29,29.65,29.51,11,2,11,0.00
2013-6-25,84,67,54,54,50,42,88,57,24,29.77,29.60,14,4,16,0.00
2013-6-26,81,67,52,54,48,40,85,55,28,29.99,29.77,14,4,15,0.00
2013-6-27,95,71,49,59,50,40,94,54,17,30.09,29.99,17,4,17,0.00
2013-6-28,100,76,49,60,53,43,96,53,16,30.14,30.00,17,3,18,0.00
2013-6-29,97,73,51,72,58,50,99,66,26,30.08,29.92,13,3,13,0.05
2013-6-30,98,76,54,66,59,52,98,62,26,30.02,29.94,14,3,14,0.00
2013-7-1,96,77,58,69,61,56,97,63,28,30.11,29.99,15,4,15,0.00
2013-7-2,106,79,55,71,60,48,96,60,16,30.03,29.83,8,2,9,0.00
2013-7-3,101,81,59,71,57,44,93,53,15,29.89,29.76,13,3,14,0.00
2013-7-4,98,79,60,67,49,31,97,45,11,29.85,29.67,11,3,11,0.00
2013-7-5,87,69,53,63,52,46,90,57,28,29.81,29.67,17,4,17,0.00
2013-7-6,85,68,52,59,52,46,95,62,26,29.86,29.75,21,5,22,0.00
2013-7-7,92,72,55,58,54,49,86,57,27,29.89,29.72,19,4,19,0.00
2013-7-8,92,71,54,68,55,39,99,65,18,30.00,29.79,17,3,17,0.25
2013-7-9,98,70,45,60,45,28,99,55,10,30.06,29.93,13,3,13,0.00
2013-7-10,104,75,44,62,43,30,96,45,10,29.98,29.69,17,3,17,0.00
2013-7-11,94,74,52,57,46,35,84,43,14,29.78,29.66,21,4,21,0.00
2013-7-12,93,70,48,60,47,32,93,51,12,29.81,29.70,15,3,20,0.00
2013-7-13,88,69,47,54,45,37,90,49,17,30.03,29.79,17,5,18,0.00
2013-7-14,97,72,48,53,42,24,84,41,10,30.06,29.86,13,3,14,0.00
2013-7-15,103,74,46,55,42,29,86,44,10,30.05,29.75,19,4,19,0.00
2013-7-16,84,68,52,52,48,46,79,52,29,30.12,29.97,17,6,17,0.00
2013-7-17,101,73,56,67,55,49,96,59,22,30.05,29.84,14,2,14,0.05
2013-7-18,100,75,50,64,47,28,99,51,10,30.03,29.92,15,3,15,0.01
2013-7-19,101,76,47,55,39,22,89,38,10,30.00,29.85,15,3,15,0.00
2013-7-20,101,74,50,56,41,23,82,39,10,29.95,29.72,16,3,17,0.00
2013-7-21,103,76,48,49,36,19,69,30,10,29.81,29.69,16,3,16,0.00
2013-7-22,99,75,45,47,36,26,71,32,10,29.86,29.74,16,4,22,0.00
2013-7-23,98,74,46,53,42,30,81,40,10,30.01,29.86,15,4,16,0.00
2013-7-24,105,77,49,54,44,31,83,40,10,30.00,29.81,15,4,15,0.00
2013-7-25,95,74,52,58,53,47,90,53,23,30.08,29.92,17,5,17,0.00
2013-7-26,104,78,51,60,44,20,94,43,10,30.05,29.84,14,3,14,0.00
2013-7-27,100,77,48,58,37,19,71,33,10,29.90,29.72,15,4,18,0.00
2013-7-28,88,70,53,57,52,46,90,57,25,29.86,29.73,14,4,20,0.00
2013-7-29,78,64,54,53,50,47,78,62,37,29.98,29.80,26,5,26,0.00
2013-7-30,85,68,51,53,51,47,86,58,31,30.08,29.95,15,4,15,0.00
2013-7-31,97,73,45,56,42,30,95,44,10,30.11,29.92,21,4,21,0.00
2013-8-1,76,63,53,60,52,42,99,70,32,29.97,29.51,14,3,14,0.30
2013-8-2,83,66,55,65,53,44,99,70,27,29.98,29.74,20,3,26,0.12
2013-8-3,81,61,44,64,52,44,99,75,40,30.03,29.93,15,3,15,0.25
2013-8-4,93,68,44,60,47,36,99,58,15,29.98,29.86,13,3,14,0.00
2013-8-5,94,69,44,56,46,30,97,56,11,29.92,29.78,19,4,20,0.00
2013-8-6,92,69,46,57,46,33,99,55,13,29.93,29.87,16,3,16,0.00
2013-8-7,94,70,47,53,47,39,90,50,16,29.92,29.82,17,4,17,0.00
2013-8-8,88,66,47,58,51,45,96,64,30,30.01,29.89,20,4,20,0.00
2013-8-9,85,69,51,58,55,48,93,63,39,30.04,29.91,15,3,15,0.00
2013-8-10,94,75,54,57,50,42,83,47,17,29.97,29.86,15,3,15,0.00
2013-8-11,94,71,54,56,51,43,86,53,21,29.97,29.88,8,2,8,0.00
2013-8-12,97,71,48,55,44,30,88,47,10,29.98,29.88,14,3,14,0.00
2013-8-13,94,71,49,55,46,35,88,48,14,30.03,29.90,17,3,17,0.00
2013-8-14,100,73,47,59,44,29,92,47,10,30.00,29.85,15,3,15,0.00
2013-8-15,106,76,47,53,38,21,83,36,10,29.92,29.79,21,3,21,0.00
2013-8-16,106,76,47,47,35,22,68,30,10,29.88,29.77,15,3,16,0.00
2013-8-17,100,76,51,49,39,30,67,33,10,29.96,29.80,14,3,14,0.00
2013-8-18,98,78,58,56,43,30,72,34,10,29.92,29.81,21,4,21,0.00
2013-8-19,99,80,54,44,36,25,57,25,10,29.91,29.77,24,5,24,0.00
2013-8-20,97,77,59,46,38,27,50,28,10,29.89,29.79,18,5,18,0.00
2013-8-21,90,68,43,44,35,25,73,36,10,30.03,29.89,17,5,17,0.00
2013-8-22,104,74,44,46,39,28,75,36,10,29.98,29.77,10,3,10,0.00
2013-8-23,95,76,62,57,46,35,63,39,15,29.82,29.67,17,4,19,0.00
2013-8-24,99,75,53,58,43,26,78,40,10,29.87,29.71,23,3,23,0.00
2013-8-25,100,74,54,61,48,34,99,50,11,29.88,29.75,19,4,19,0.00
2013-8-26,97,73,50,63,49,36,99,56,13,29.91,29.77,17,3,17,0.00
2013-8-27,100,73,47,57,45,29,93,47,10,29.92,29.79,13,3,14,0.00
2013-8-28,97,72,50,61,49,43,82,50,18,29.91,29.80,14,3,14,0.00
2013-8-29,102,74,52,63,51,35,97,56,10,29.96,29.81,17,3,17,0.00
2013-8-30,96,73,49,59,45,30,93,47,11,29.96,29.86,17,3,17,0.00
2013-8-31,90,68,42,46,36,24,83,39,10,30.04,29.91,17,4,17,0.00
2013-9-1,104,72,41,46,35,24,78,35,10,29.96,29.77,11,3,11,0.00
2013-9-2,97,74,49,45,36,28,65,32,10,29.88,29.75,10,2,13,0.00
2013-9-3,99,74,50,49,43,37,72,39,13,30.01,29.88,13,3,13,0.00
2013-9-4,102,78,60,61,52,46,69,46,16,30.01,29.91,12,3,15,0.00
2013-9-5,98,71,52,64,54,47,97,60,20,29.96,29.85,21,2,21,0.00
2013-9-6,92,68,53,71,60,53,99,82,31,29.97,29.85,13,2,13,0.00
2013-9-7,79,65,60,66,62,59,99,90,62,30.01,29.89,16,2,16,0.00
2013-9-8,81,65,50,66,56,44,99,75,30,29.94,29.81,14,2,14,0.00
2013-9-9,87,62,48,61,52,46,96,73,31,29.93,29.84,9,2,9,0.00
2013-9-10,94,66,44,61,48,36,99,62,15,30.00,29.91,10,2,11,0.00
2013-9-11,88,66,45,56,48,38,98,58,19,30.14,30.00,19,4,19,0.00
2013-9-12,93,67,43,54,47,42,97,57,20,30.14,29.89,14,3,14,0.00
2013-9-13,96,70,47,57,47,36,95,53,15,29.90,29.70,13,2,14,0.00
2013-9-14,81,66,52,55,50,45,87,59,35,29.99,29.78,14,3,14,0.00
2013-9-15,93,67,42,54,48,40,96,58,23,30.01,29.77,15,3,15,0.00
2013-9-16,96,72,55,57,51,46,89,53,20,29.79,29.63,18,4,18,0.00
2013-9-17,71,58,43,55,48,41,96,72,51,29.73,29.51,16,3,16,0.00
2013-9-18,60,55,44,51,44,42,99,68,55,29.96,29.55,11,6,11,0.00
2013-9-19,58,58,58,42,42,42,55,55,55,30.03,29.92,9,9,9,0.00
2013-9-20,58,58,58,42,42,42,55,55,55,29.93,29.64,9,9,9,0.00
2013-9-21,74,66,58,56,49,42,55,54,53,29.88,29.46,9,6,9,0.00
2013-9-22,81,66,48,61,51,39,94,60,35,30.27,29.51,8,3,8,0.00
2013-9-23,69,57,44,42,36,31,80,48,25,30.19,29.99,21,6,21,0.00
2013-9-24,61,51,41,48,40,32,99,70,43,30.19,30.01,10,2,10,0.00
2013-9-25,50,44,41,46,43,40,99,95,79,30.10,29.99,22,3,26,0.00
2013-9-26,49,40,31,44,38,31,99,96,82,30.27,30.09,19,2,19,0.00
2013-9-27,62,44,26,44,33,26,99,70,34,30.27,30.14,16,3,16,0.00
2013-9-28,64,55,43,43,39,36,79,56,43,30.15,29.98,24,6,25,0.00
2013-9-29,65,56,50,44,37,33,71,50,36,29.99,29.78,25,8,25,0.00
2013-9-30,63,53,46,46,35,28,93,51,27,30.14,29.77,24,7,24,0.00
2013-10-1,64,50,34,35,32,27,84,52,25,30.25,30.14,15,4,16,0.00
2013-10-2,66,48,28,38,27,18,95,52,16,30.35,30.21,19,4,19,0.00
2013-10-3,45,37,33,38,34,27,99,91,50,30.60,30.24,21,2,21,0.00
2013-10-4,61,42,32,44,33,29,99,74,34,30.68,30.54,11,2,11,0.00
2013-10-5,69,49,34,36,30,27,80,52,21,30.54,30.44,13,4,14,0.00
2013-10-6,77,58,41,38,33,26,82,42,17,30.48,30.23,16,4,16,0.00
2013-10-7,79,55,35,47,32,23,96,52,13,30.23,29.98,15,4,15,0.00
2013-10-8,64,49,30,34,30,26,90,50,26,30.23,30.06,16,4,16,0.00
2013-10-9,59,38,27,40,33,26,98,84,48,30.34,30.10,13,2,13,0.00
2013-10-10,68,45,28,47,32,23,99,69,22,30.12,30.00,11,2,11,0.00
2013-10-11,64,44,30,39,32,23,94,68,22,30.29,30.12,8,2,8,0.00
2013-10-12,56,37,24,36,30,24,99,79,38,30.37,30.27,11,2,11,0.00
2013-10-13,52,42,34,38,35,32,97,76,54,30.46,30.37,10,2,11,0.00
2013-10-14,55,40,30,40,35,30,99,83,45,30.62,30.45,9,2,9,0.00
2013-10-15,64,41,21,39,28,21,99,67,26,30.61,30.32,17,3,18,0.00
2013-10-16,46,36,29,38,32,25,99,86,55,30.44,30.29,8,1,8,0.00
2013-10-17,50,37,30,43,35,29,99,93,65,30.49,30.38,11,1,11,0.00
2013-10-18,65,42,24,42,32,24,99,72,29,30.49,30.26,17,2,17,0.00
2013-10-19,68,48,32,40,34,30,93,63,25,30.32,30.16,14,3,14,0.00
2013-10-20,66,48,38,45,40,35,99,77,35,30.36,30.28,11,2,13,0.00
2013-10-21,73,47,28,50,36,28,99,73,28,30.38,30.32,8,2,8,0.00
2013-10-22,78,52,32,50,37,32,99,67,20,30.38,30.31,11,2,11,0.00
2013-10-23,70,45,27,42,35,26,99,74,33,30.46,30.39,15,2,15,0.00
2013-10-24,75,46,26,44,34,26,99,71,22,30.46,30.30,10,2,10,0.00
2013-10-25,78,48,31,43,34,27,99,67,17,30.47,30.32,7,2,7,0.00
2013-10-26,74,47,27,46,27,9,99,59,10,30.47,30.24,13,3,18,0.00
2013-10-27,63,43,27,34,29,23,98,62,25,30.51,30.11,15,3,15,0.00
2013-10-28,27,21,18,23,19,16,96,92,84,30.53,30.39,0,0,0,0.00
2013-10-29,53,26,14,30,21,13,98,85,34,30.39,30.08,5,1,8,0.00
2013-10-30,35,28,26,28,26,24,95,88,73,30.11,30.06,6,2,8,0.00
2013-10-31,44,33,30,32,30,28,96,86,59,30.25,30.14,7,2,12,0.00
2013-11-1,61,38,24,40,29,23,99,75,31,30.38,30.26,11,2,11,0.00
2013-11-2,62,33,30,32,30,27,97,89,32,30.33,29.89,12,2,17,0.00
2013-11-3,48,32,28,30,27,20,97,83,34,30.20,30.01,11,3,11,0.00
2013-11-4,43,28,17,29,24,16,97,86,51,30.30,30.20,9,2,9,0.00
2013-11-5,40,28,15,28,19,14,98,74,39,30.30,30.23,14,3,14,0.00
2013-11-6,54,39,28,30,26,22,93,62,31,30.50,30.27,11,4,19,0.00
2013-11-7,61,42,29,43,33,23,94,71,38,30.48,29.92,16,3,19,0.00
2013-11-8,44,42,40,31,28,23,67,57,50,30.32,29.99,14,6,17,0.00
2013-11-9,54,40,27,29,24,22,85,56,32,30.40,30.31,8,3,14,0.00
2013-11-10,39,33,26,32,28,24,94,81,63,30.49,30.32,10,3,13,0.00
2013-11-11,51,32,25,34,27,24,99,84,50,30.59,30.49,7,2,8,0.00
2013-11-12,55,34,26,41,30,26,99,88,56,30.57,30.41,8,2,8,0.00
2013-11-13,61,50,36,39,32,27,75,52,28,30.43,30.34,19,5,21,0.00
2013-11-14,51,40,30,30,27,23,81,61,36,30.36,29.96,11,3,11,0.00
2013-11-15,52,38,26,26,23,21,84,56,33,29.96,29.64,15,5,15,0.00
2013-11-16,40,33,20,28,24,16,86,70,52,29.85,29.53,12,4,13,0.00
2013-11-17,46,30,15,26,20,14,98,70,38,30.15,29.85,14,3,17,0.00
2013-11-18,58,45,34,23,21,14,64,40,20,30.14,29.95,17,5,21,0.00
2013-11-19,60,42,13,35,23,8,81,49,32,30.07,29.85,17,6,21,0.00
2013-11-20,14,7,-5,8,1,-8,87,77,53,30.52,30.07,11,3,12,0.00
2013-11-21,35,7,-6,14,-1,-9,90,74,36,30.66,30.51,9,1,9,0.00
2013-11-22,47,26,13,15,9,4,86,53,17,30.74,30.65,11,2,12,0.00
2013-11-23,52,18,11,27,12,9,93,81,24,30.70,30.59,7,2,7,0.00
2013-11-24,60,40,26,23,19,10,83,47,14,30.48,30.29,11,2,11,0.00
2013-11-25,63,31,15,29,22,14,95,73,23,30.54,30.47,4,1,5,0.00
2013-11-26,63,34,21,35,24,20,97,74,23,30.54,30.28,7,2,9,0.00
2013-11-27,60,39,19,33,25,16,91,62,24,30.33,30.28,9,2,9,0.00
2013-11-28,59,35,16,35,22,15,98,66,23,30.32,30.21,12,2,12,0.00
2013-11-29,60,45,30,30,24,21,74,47,23,30.34,30.26,13,4,18,0.00
2013-11-30,52,44,36,34,32,29,77,62,44,30.35,30.29,20,4,20,0.00
2013-12-1,52,44,34,38,33,30,88,65,56,30.31,29.88,17,5,17,0.00
2013-12-2,47,26,8,37,23,4,99,88,63,30.26,29.77,14,3,18,0.00
2013-12-3,8,4,-4,4,1,-7,88,84,79,30.45,30.26,10,3,11,0.00
2013-12-4,9,-3,-22,1,-7,-27,89,81,56,30.48,30.42,6,1,7,0.00
2013-12-5,24,-10,-25,4,-17,-30,86,72,33,30.55,30.35,8,1,8,0.00
2013-12-6,2,-18,-30,-12,-25,-36,80,68,41,30.62,30.55,8,2,11,0.00
2013-12-7,6,-20,-35,-13,-29,-41,82,66,37,30.57,30.24,6,1,6,0.00
2013-12-8,9,-1,-18,3,-6,-22,88,77,66,30.39,30.21,9,3,9,0.00
2013-12-9,31,16,1,15,5,-6,72,63,41,30.34,30.23,14,6,15,0.00
2013-12-10,29,21,-2,21,13,-4,94,73,54,30.45,30.17,17,4,18,0.00
2013-12-11,41,28,-1,22,16,-3,96,64,41,30.44,30.38,21,6,24,0.00
2013-12-12,47,35,25,24,22,20,82,60,38,30.42,30.15,14,5,17,0.00
2013-12-13,52,38,25,28,25,22,92,61,35,30.41,30.17,12,4,17,0.00
2013-12-14,46,36,21,32,27,20,98,73,44,30.42,30.27,16,5,18,0.00
2013-12-15,53,46,45,31,26,22,56,45,36,30.33,30.21,21,9,22,0.00
2013-12-16,54,44,32,31,27,24,75,51,33,30.45,30.27,21,6,21,0.00
2013-12-17,64,50,36,26,20,14,61,32,15,30.45,30.05,17,6,24,0.00
2013-12-18,51,40,8,27,20,4,93,50,24,30.28,29.96,16,6,18,0.00
2013-12-19,20,7,-1,9,2,-4,89,79,42,30.40,30.13,10,2,10,0.00
2013-12-20,37,25,18,21,12,8,82,60,37,30.13,29.78,14,5,17,0.00
2013-12-21,43,26,16,30,21,13,94,82,44,30.06,29.72,6,2,8,0.00
2013-12-22,32,14,3,15,8,0,91,80,41,30.03,29.82,7,2,8,0.00
2013-12-23,48,35,4,36,28,2,99,76,61,30.20,29.86,17,5,28,0.00
2013-12-24,45,32,24,28,24,19,90,73,37,30.55,30.20,9,2,10,0.00
2013-12-25,49,34,20,19,12,-1,86,47,15,30.55,30.35,21,5,23,0.00
2013-12-26,56,48,40,31,27,18,55,45,35,30.43,30.32,21,7,21,0.00
2013-12-27,63,51,45,30,24,19,43,35,18,30.36,30.11,14,6,21,0.00
2013-12-28,48,23,12,27,13,6,81,69,35,30.59,30.11,24,4,26,0.00
2013-12-29,36,24,12,24,17,10,93,74,50,30.51,30.21,13,3,14,0.00
2013-12-30,46,31,23,34,25,20,93,80,50,30.35,30.13,11,2,11,0.00
2013-12-31,47,40,25,34,30,23,93,67,58,30.29,30.12,14,4,15,0.00
2014-1-1,52,33,20,32,23,19,96,71,31,30.50,30.30,11,2,11,0.00
2014-1-2,52,43,31,32,23,19,71,46,30,30.40,29.95,19,7,25,0.00